Cloud_Cover
0 5 2 0 1 58 100 100 100 100 100 100 97 68 100 100 100 100 100 100 100 100 100 100 100 100 15 11 57 94 1 5 5 5 5 5 0 1 0 5 1 0 8 85 0 4 0 4 0
2 3 0 0 0 0 100 100 100 100 100 100 100 80 99 100 100 100 100 100 100 100 100 100 100 100 7 6 5 5 6 28 9 28 72 3 3 1 3 4 2 4 100 6 1 5 0 1 7
5 4 0 0 0 4 56 100 100 100 100 100 100 100 100 100 100 100 100 100 100 99 99 99 91 80 6 37 5 9 62 37 29 7 5 34 40 34 5 5 86 39 5 5 5 5 1 0 6
15 0 1 0 5 30 40 100 100 100 100 100 100 100 100 100 100 100 100 100 100 94 100 100 100 66 98 89 78 58 84 16 5 5 84 9 100 5 5 95 100 100 7 5 5 42 3 0 4
71 5 5 1 2 3 5 90 100 77 100 100 100 100 100 100 100 100 100 100 100 100 100 100 100 100 94 78 79 100 18 8 44 11 77 68 68 25 100 100 100 93 33 95 5 5 4 1 5
46 11 5 5 5 22 5 73 91 100 100 100 100 100 100 100 100 100 100 100 100 100 100 100 100 97 77 100 100 94 29 23 90 78 96 99 97 81 100 100 98 40 5 5 5 5 20 2 0
8 65 53 5 48 41 5 83 100 100 100 100 100 100 100 100 100 100 100 100 100 100 100 100 100 100 100 100 100 98 75 98 90 100 100 100 100 100 95 69 100 22 5 5 5 1 0 5 0
94 100 83 12 95 56 6 88 94 100 100 100 100 100 100 100 100 100 100 100 100 100 100 100 100 100 100 100 85 49 100 100 100 100 100 100 100 89 100 91 39 5 5 5 1 0 5 6 0
96 85 84 98 100 100 100 84 100 100 100 100 100 100 100 100 100 100 100 100 100 100 100 100 96 95 93 100 100 100 100 100 100 100 100 100 100 100 100 95 96 5 5 5 1 0 5 22 5
93 94 86 100 100 100 100 100 100 100 100 100 100 100 100 100 100 100 100 100 100 100 100 100 91 100 100 100 100 100 100 100 100 100 100 100 100 100 100 39 22 7 5 4 0 1 0 1 4
96 93 100 100 100 100 100 100 78 100 96 93 100 100 100 100 100 100 100 100 100 100 100 100 100 100 100 100 100 100 100 100 100 100 100 100 100 100 98 6 23 2 2 4 5 3 0 3 4
99 100 100 100 100 100 100 100 100 100 100 100 100 100 100 100 100 100 100 100 100 100 100 100 100 100 100 100 100 100 100 100 100 100 100 100 100 85 10 4 5 5 5 4 0 0 0 0 4
100 100 100 100 100 100 100 100 100 100 100 100 100 100 100 100 100 100 100 100 100 100 100 100 100 100 100 100 100 100 100 100 100 100 100 75 5 17 5 5 3 1 5 34 0 0 0 0 0
100 100 100 100 100 100 100 100 100 100 100 100 100 100 100 100 100 100 73 100 100 100 100 98 90 100 100 100 100 82 100 100 100 100 100 100 100 84 100 87 26 6 5 0 0 0 0 0 0
100 100 100 100 100 100 100 100 100 100 100 100 100 100 100 100 52 59 97 100 100 100 99 100 100 80 84 86 100 100 100 100 74 100 100 100 100 97 99 100 100 79 12 32 27 5 5 3 4
100 100 100 100 100 100 100 100 100 100 100 100 83 99 100 100 100 95 83 35 33 13 97 94 100 100 100 98 100 100 100 100 100 100 100 100 100 100 100 100 100 23 5 35 5 17 10 5 5
100 100 100 100 100 100 100 100 100 100 100 100 100 100 100 72 5 5 19 13 71 98 100 100 90 100 95 100 100 100 100 100 100 100 100 100 100 100 100 100 84 6 5 5 22 13 18 87 89
100 100 100 100 100 100 100 100 100 100 100 100 100 100 100 36 99 70 66 100 100 100 100 85 83 100 100 100 100 100 100 100 100 100 100 100 100 100 100 28 0 3 5 5 5 28 36 16 7
100 100 95 48 36 62 98 97 100 100 99 100 93 58 95 26 49 100 100 100 59 61 32 75 94 86 83 100 100 100 100 100 100 100 100 100 100 100 98 5 5 5 5 5 5 5 5 5 5
100 88 44 58 75 42 19 15 17 57 23 5 5 21 48 73 91 69 77 70 52 44 41 13 55 67 72 72 5 5 72 100 76 100 98 21 1 1 0 0 0 0 0 0 2 4 2 5 4
72 99 93 84 100 100 89 78 95 66 15 5 38 6 5 5 6 29 5 4 5 5 5 23 24 5 15 5 1 5 50 5 5 5 8 5 5 0 3 5 2 14 74 93 99 97 78 5 1
26 16 13 37 38 70 75 46 6 5 5 13 53 17 7 5 5 5 4 5 5 88 80 56 5 5 5 3 5 61 48 60 82 5 3 5 5 5 5 43 95 100 100 42 8 1 0 0 3
31 5 16 10 5 10 5 4 0 0 0 0 0 0 0 0 5 4 5 5 17 68 13 69 42 8 92 99 92 74 77 91 91 54 5 5 7 71 100 100 96 6 5 5 5 0 0 0 5
0 0 0 0 2 3 4 0 0 0 0 0 0 0 0 1 0 3 5 29 25 47 72 62 100 89 74 84 19 5 16 5 4 4 5 46 100 99 68 6 4 2 0 0 5 5 5 6 5
0 0 5 4 5 2 0 0 0 0 0 0 0 0 0 0 5 5 8 92 100 97 98 50 73 84 80 72 78 27 5 17 5 5 39 78 16 4 5 5 5 5 5 3 5 18 5 48 95
0 0 0 0 0 0 0 0 0 0 0 0 0 0 0 0 5 20 99 100 96 8 7 8 32 69 61 29 82 76 79 92 5 14 3 5 5 5 5 6 5 5 5 5 5 5 5 11 42
0 0 0 0 0 0 0 0 0 0 0 0 0 0 0 1 5 40 88 51 0 5 5 5 6 26 79 100 100 100 100 10 5 5 5 7 40 89 79 8 5 1 0 0 1 5 6 25 89
0 0 0 0 0 0 0 0 0 0 0 0 0 0 0 5 5 5 4 0 0 2 5 8 94 100 100 100 98 89 6 5 5 16 56 61 31 5 5 0 0 2 0 5 81 11 74 56 100
0 0 0 0 0 0 0 0 0 0 0 0 0 0 1 5 2 0 0 2 5 5 5 62 77 95 100 100 100 30 5 5 5 8 5 5 3 4 1 1 0 0 6 98 78 35 83 100 63
0 0 0 0 0 1 0 0 0 0 0 0 5 5 0 0 0 2 5 5 5 5 45 86 89 100 100 100 21 5 5 5 5 5 3 5 5 1 5 0 0 5 98 100 42 100 99 100 100